Bartlesville, OK

1:36 PM CDT on October 22, 2017 (GMT -0500)
Bartlesville Municipal

Weather History for KBVO - March, 2014

Change the Weather History Date:

Saturday, March 22, 2014

  Actual Average Record
Temperature  
Mean Temperature 46 °F -  
Max Temperature 57 °F 67 °F 85 °F (1951)
Min Temperature 37 °F 38 °F 15 °F (2002)
Degree Days  
Heating Degree Days 19    
Moisture  
Dew Point 25 °F    
Average Humidity 43    
Maximum Humidity 67    
Minimum Humidity 28    
Precipitation  
Precipitation 0.00 in - - ()
Sea Level Pressure  
Sea Level Pressure 30.20 in    
Wind  
Wind Speed 14 mph (NNE)    
Max Wind Speed 21 mph    
Max Gust Speed 28 mph    
Visibility 10 miles    
Events      
Averages and records for this station are not official NWS values.
T = Trace of Precipitation, MM = Missing Value Source: NWS Daily Summary

Daily Weather History Graph

Daily Weather History Graph

Search for Another Location

Airport or City:

Trip Planner

Search our weather history database for the weather conditions in past years. The results will help you decide how hot, cold, wet, or windy it might be!

Date:

Astronomy

Mar. 22, 2014 Rise Set
Actual Time 7:24 AM CDT 7:37 PM CDT
Civil Twilight 6:58 AM CDT 8:03 PM CDT
Nautical Twilight 6:28 AM CDT 8:33 PM CDT
Astronomical Twilight 5:57 AM CDT 9:04 PM CDT
Moon 12:50 AM CDT 11:16 AM CDT
Length of Visible Light 13h 04m
Length of Day
12h 13m
Waning Gibbous, 65% of the Moon is Illuminated
Mar 22
Waning Gibbous
Mar 23
Last Quarter
Mar 30
New
Apr 7
First Quarter
Apr 15
Full

Hourly Weather History & Observations

Time (CDT) Temp. Windchill Dew Point Humidity Pressure Visibility Wind Dir Wind Speed Gust Speed Precip Events Conditions
12:53 AM 51.1 °F - 28.0 °F 41% 30.07 in 10.0 mi North 13.8 mph - N/A   Clear
1:53 AM 50.0 °F - 30.0 °F 46% 30.08 in 10.0 mi North 19.6 mph 27.6 mph N/A   Clear
2:53 AM 46.9 °F - 30.0 °F 52% 30.10 in 10.0 mi NNE 16.1 mph - N/A   Clear
3:53 AM 45.0 °F 38.9 °F 30.9 °F 58% 30.12 in 10.0 mi NNE 12.7 mph 26.5 mph N/A   Clear
4:53 AM 43.0 °F 36.0 °F 32.0 °F 65% 30.16 in 10.0 mi North 13.8 mph 25.3 mph N/A   Clear
5:53 AM 41.0 °F 34.7 °F 30.9 °F 67% 30.19 in 10.0 mi North 10.4 mph 19.6 mph N/A   Clear
6:53 AM 37.9 °F 30.0 °F 27.0 °F 65% 30.22 in 10.0 mi NNE 12.7 mph - N/A   Clear
7:53 AM 37.9 °F 28.9 °F 27.0 °F 65% 30.25 in 10.0 mi NNE 16.1 mph 20.7 mph N/A   Clear
8:53 AM 39.9 °F 30.8 °F 26.1 °F 58% 30.26 in 10.0 mi NNE 18.4 mph 24.2 mph N/A   Clear
9:53 AM 43.0 °F 35.1 °F 24.1 °F 47% 30.27 in 10.0 mi NE 17.3 mph 26.5 mph N/A   Clear
10:53 AM 46.0 °F 39.9 °F 25.0 °F 44% 30.28 in 10.0 mi NE 13.8 mph - N/A   Clear
11:53 AM 48.9 °F - 25.0 °F 39% 30.26 in 10.0 mi NE 10.4 mph 21.9 mph N/A   Clear
12:53 PM 52.0 °F - 25.0 °F 35% 30.24 in 10.0 mi NNE 9.2 mph 18.4 mph N/A   Clear
1:53 PM 54.0 °F - 25.0 °F 33% 30.21 in 10.0 mi NNE 15.0 mph 21.9 mph N/A   Clear
2:53 PM 55.0 °F - 25.0 °F 31% 30.18 in 10.0 mi NE 11.5 mph 20.7 mph N/A   Clear
3:53 PM 55.9 °F - 24.1 °F 29% 30.16 in 10.0 mi NE 11.5 mph 23.0 mph N/A   Clear
4:53 PM 55.9 °F - 23.0 °F 28% 30.14 in 10.0 mi NE 10.4 mph - N/A   Clear
5:53 PM 54.0 °F - 23.0 °F 30% 30.14 in 10.0 mi NNE 11.5 mph 19.6 mph N/A   Partly Cloudy
6:53 PM 52.0 °F - 21.9 °F 31% 30.16 in 10.0 mi NE 12.7 mph 18.4 mph N/A   Overcast
7:53 PM 50.0 °F - 21.9 °F 33% 30.19 in 10.0 mi NE 11.5 mph - N/A   Overcast
8:53 PM 48.9 °F - 21.9 °F 35% 30.23 in 10.0 mi NNE 13.8 mph 18.4 mph N/A   Overcast
9:53 PM 46.9 °F - 18.0 °F 32% 30.27 in 10.0 mi NNE 20.7 mph - N/A   Overcast
10:53 PM 44.1 °F 36.5 °F 18.0 °F 35% 30.31 in 10.0 mi North 17.3 mph 24.2 mph N/A   Overcast
11:53 PM 42.1 °F 33.6 °F 15.1 °F 34% 30.35 in 10.0 mi North 18.4 mph 25.3 mph N/A   Overcast